Location: Clanezzo
(45.7500°N, 9.6000°E)
Time: 12:42:08
(UTC+00:00)

USA 308 - Pass Details

Date: 01 October 2021
Orbit: 566 x 573 km, 54.0° (Epoch: 23 September)

Event Time Altitude Azimuth Distance (km) Brightness Sun altitude
Rises 17:50:07 0° 303° (WNW) 2,771 7.6 -9.3°
Reaches altitude 10° 17:52:24 10° 307° (NW) 1,873 6.5 -9.7°
Maximum altitude 17:56:37 63° 29° (NNE) 641 3.0 -10.4°
Enters shadow 18:00:03 15° 109° (ESE) 1,563 4.5 -11.0°
